Farmville, Virginia, United States (23901)
Lat: 37.30N, Lon: 78.39W
Wx Zone: VAZ060
Local Info
Past Weather Observations for Yesterday

NOTE: This archive is for the closest National Weather Service station to Farmville. Information may differ from the station used for current weather conditions.

Click here for Long-term Archive

Time Weather Temperature Dewpoint Humidity Pressure Winds Precip Visibility
23:55
Clear
23°F / -5°C 5°F / -15°C 46% 30.3 in
(1026 mb)
Calm - 10SM
23:35
Clear
25°F / -4°C 3°F / -16°C 39% 30.3 in
(1026 mb)
Calm - 10SM
23:15
Clear
23°F / -5°C 5°F / -15°C 46% 30.3 in
(1026 mb)
N 4.6 mph
(N 7 kph)
- 10SM
22:55
Clear
25°F / -4°C 3°F / -16°C 39% 30.3 in
(1026 mb)
NE 3.5 mph
(NE 6 kph)
- 10SM
22:35
Clear
25°F / -4°C 5°F / -15°C 42% 30.3 in
(1026 mb)
N 3.5 mph
(N 6 kph)
- 10SM
22:15
Clear
25°F / -4°C 3°F / -16°C 39% 30.3 in
(1026 mb)
NE 5.8 mph
(NE 9 kph)
- 10SM
21:55
Clear
27°F / -3°C 1°F / -17°C 33% 30.3 in
(1026 mb)
N 3.5 mph
(N 6 kph)
- 10SM
21:35
Clear
27°F / -3°C 1°F / -17°C 33% 30.27 in
(1025 mb)
NNE 3.5 mph
(NNE 6 kph)
- 10SM
21:15
Clear
28°F / -2°C 1°F / -17°C 31% 30.27 in
(1025 mb)
N 3.5 mph
(N 6 kph)
- 10SM
20:55
Clear
28°F / -2°C 1°F / -17°C 31% 30.27 in
(1025 mb)
NW 4.6 mph
(NW 7 kph)
- 10SM
20:35
Clear
28°F / -2°C 1°F / -17°C 31% 30.27 in
(1025 mb)
Calm - 10SM
20:15
Clear
28°F / -2°C °F / -18°C 29% 30.27 in
(1025 mb)
Calm - 10SM
19:55
Clear
28°F / -2°C °F / -18°C 29% 30.27 in
(1025 mb)
Calm - 10SM
19:35
Clear
28°F / -2°C °F / -18°C 29% 30.24 in
(1024 mb)
Calm - 10SM
19:15
Clear
28°F / -2°C °F / -18°C 29% 30.24 in
(1024 mb)
Calm - 10SM
18:55
Clear
30°F / -1°C -2°F / -19°C 24% 30.24 in
(1024 mb)
Calm - 10SM
18:35
Clear
30°F / -1°C -2°F / -19°C 24% 30.21 in
(1023 mb)
Calm - 10SM
18:15
Clear
30°F / -1°C -2°F / -19°C 24% 30.21 in
(1023 mb)
Calm - 10SM
17:55
Clear
32°F / 0°C -2°F / -19°C 23% 30.21 in
(1023 mb)
Calm - 10SM
17:35
Clear
32°F / 0°C -4°F / -20°C 21% 30.18 in
(1022 mb)
Calm - 10SM
17:15
Clear
34°F / 1°C -4°F / -20°C 19% 30.18 in
(1022 mb)
WNW 5.8 mph
(WNW 9 kph)
- 10SM
16:55
Clear
34°F / 1°C -4°F / -20°C 19% 30.15 in
(1021 mb)
Calm - 10SM
16:35
Clear
34°F / 1°C -6°F / -21°C 18% 30.15 in
(1021 mb)
WNW 8.1 mph
(WNW 13 kph)
- 10SM
16:15
Clear
36°F / 2°C -6°F / -21°C 16% 30.15 in
(1021 mb)
W 5.8 mph
(W 9 kph)
- 10SM
15:55
Clear
34°F / 1°C -4°F / -20°C 19% 30.15 in
(1021 mb)
SSW 8.1 mph
(SSW 13 kph)
- 10SM
15:35
Clear
36°F / 2°C -4°F / -20°C 18% 30.12 in
(1020 mb)
W 6.9 mph
(W 11 kph)
- 10SM
15:15
Clear
34°F / 1°C -4°F / -20°C 19% 30.12 in
(1020 mb)
SSW 10.4 mph
(SSW 17 kph)
- 10SM
14:55
Clear
34°F / 1°C -6°F / -21°C 18% 30.12 in
(1020 mb)
SSW 6.9 mph
(SSW 11 kph)
- 10SM
14:35
Clear
34°F / 1°C -4°F / -20°C 19% 30.12 in
(1020 mb)
SSW 6.9 mph
(SSW 11 kph)
- 10SM
14:15
Clear
34°F / 1°C -2°F / -19°C 21% 30.12 in
(1020 mb)
SSW 9.2 mph
(SSW 15 kph)
- 10SM
13:55
Clear
34°F / 1°C -2°F / -19°C 21% 30.12 in
(1020 mb)
SSW 9.2 mph
(SSW 15 kph)
- 10SM
13:35
Clear
34°F / 1°C °F / -18°C 23% 30.12 in
(1020 mb)
SSW 11.5 mph
(SSW 19 kph)
- 10SM
13:15
Clear
34°F / 1°C °F / -18°C 23% 30.12 in
(1020 mb)
WNW 6.9 mph
(WNW 11 kph)
- 10SM
12:55
Clear
34°F / 1°C °F / -18°C 23% 30.12 in
(1020 mb)
SSW 8.1 mph
(SSW 13 kph)
- 10SM
12:35
Clear
32°F / 0°C 1°F / -17°C 27% 30.12 in
(1020 mb)
SSW 5.8 mph
(SSW 9 kph)
- 10SM
12:15
Clear
32°F / 0°C °F / -18°C 25% 30.15 in
(1021 mb)
SSW 6.9 mph
(SSW 11 kph)
- 10SM
11:55
Clear
32°F / 0°C °F / -18°C 25% 30.15 in
(1021 mb)
SSW 10.4 mph
(SSW 17 kph)
- 10SM
11:35
Clear
32°F / 0°C °F / -18°C 25% 30.15 in
(1021 mb)
SW 10.4 mph
(SW 17 kph)
- 10SM
11:15
Clear
30°F / -1°C °F / -18°C 26% 30.15 in
(1021 mb)
WNW 5.8 mph
(WNW 9 kph)
- 10SM
10:55
Clear
30°F / -1°C 1°F / -17°C 29% 30.15 in
(1021 mb)
SSW 6.9 mph
(SSW 11 kph)
- 10SM
10:35
Clear
28°F / -2°C 1°F / -17°C 31% 30.15 in
(1021 mb)
SSW 5.8 mph
(SSW 9 kph)
- 10SM
10:15
Clear
28°F / -2°C 1°F / -17°C 31% 30.15 in
(1021 mb)
SSW 3.5 mph
(SSW 6 kph)
- 10SM
09:55
Clear
27°F / -3°C 1°F / -17°C 33% 30.15 in
(1021 mb)
NW 5.8 mph
(NW 9 kph)
- 10SM
09:35
Clear
27°F / -3°C 1°F / -17°C 33% 30.15 in
(1021 mb)
W 4.6 mph
(W 7 kph)
- 10SM
09:15
Clear
25°F / -4°C 3°F / -16°C 39% 30.15 in
(1021 mb)
W 4.6 mph
(W 7 kph)
- 10SM
08:55
Clear
25°F / -4°C 3°F / -16°C 39% 30.15 in
(1021 mb)
W 6.9 mph
(W 11 kph)
- 10SM
08:35
Clear
23°F / -5°C 5°F / -15°C 46% 30.15 in
(1021 mb)
Calm - 10SM
08:15
Clear
21°F / -6°C 7°F / -14°C 54% 30.15 in
(1021 mb)
SW 3.5 mph
(SW 6 kph)
- 10SM
07:55
Clear
19°F / -7°C 7°F / -14°C 58% 30.12 in
(1020 mb)
Calm - 10SM
07:35
Clear
18°F / -8°C 7°F / -14°C 62% 30.12 in
(1020 mb)
Calm - 10SM
07:15
Clear
16°F / -9°C 7°F / -14°C 67% 30.12 in
(1020 mb)
Calm - 10SM
06:55
Clear
18°F / -8°C 7°F / -14°C 62% 30.12 in
(1020 mb)
Calm - 10SM
06:35
Clear
18°F / -8°C 3°F / -16°C 53% 30.09 in
(1019 mb)
Calm - 10SM
06:15
Clear
19°F / -7°C 3°F / -16°C 49% 30.09 in
(1019 mb)
Calm - 10SM
05:55
Clear
19°F / -7°C 3°F / -16°C 49% 30.09 in
(1019 mb)
Calm - 10SM
05:35
Clear
19°F / -7°C 1°F / -17°C 45% 30.09 in
(1019 mb)
SSW 4.6 mph
(SSW 7 kph)
- 10SM
05:15
Clear
21°F / -6°C 1°F / -17°C 42% 30.06 in
(1018 mb)
SSW 4.6 mph
(SSW 7 kph)
- 10SM
04:55
Clear
21°F / -6°C 1°F / -17°C 42% 30.06 in
(1018 mb)
SSW 6.9 mph
(SSW 11 kph)
- 10SM
04:35
Clear
21°F / -6°C 1°F / -17°C 42% 30.06 in
(1018 mb)
SSW 5.8 mph
(SSW 9 kph)
- 10SM
04:15
Clear
21°F / -6°C 1°F / -17°C 42% 30.04 in
(1017 mb)
SSW 3.5 mph
(SSW 6 kph)
- 10SM
03:55
Clear
23°F / -5°C 1°F / -17°C 39% 30.04 in
(1017 mb)
SSW 3.5 mph
(SSW 6 kph)
- 10SM
03:35
Clear
23°F / -5°C 1°F / -17°C 39% 30.04 in
(1017 mb)
SSW 3.5 mph
(SSW 6 kph)
- 10SM
03:15
Clear
23°F / -5°C 1°F / -17°C 39% 30.04 in
(1017 mb)
W 3.5 mph
(W 6 kph)
- 10SM
02:55
Clear
23°F / -5°C 1°F / -17°C 39% 30.04 in
(1017 mb)
SSW 4.6 mph
(SSW 7 kph)
- 10SM
02:35
Clear
23°F / -5°C 3°F / -16°C 42% 30.04 in
(1017 mb)
W 4.6 mph
(W 7 kph)
- 10SM
02:15
Clear
23°F / -5°C 3°F / -16°C 42% 30.04 in
(1017 mb)
W 5.8 mph
(W 9 kph)
- 10SM
01:55
Clear
23°F / -5°C 3°F / -16°C 42% 30.04 in
(1017 mb)
Calm - 10SM
01:35
Clear
23°F / -5°C 3°F / -16°C 42% 30.04 in
(1017 mb)
SSW 4.6 mph
(SSW 7 kph)
- 10SM
01:15
Clear
23°F / -5°C 3°F / -16°C 42% 30.04 in
(1017 mb)
W 3.5 mph
(W 6 kph)
- 10SM
00:55
Clear
23°F / -5°C 3°F / -16°C 42% 30.04 in
(1017 mb)
SSW 5.8 mph
(SSW 9 kph)
- 10SM
00:35
Clear
23°F / -5°C 5°F / -15°C 46% 30.04 in
(1017 mb)
SSW 3.5 mph
(SSW 6 kph)
- 10SM
00:15
Clear
23°F / -5°C 5°F / -15°C 46% 30.01 in
(1016 mb)
SSW 3.5 mph
(SSW 6 kph)
- 10SM
Time Weather Temperature Dewpoint Humidity Pressure Winds Precip Visibility


Weather for websites

WeatherForYou.com, LLC is not responsible for any damages or problems caused by this service. Current weather conditions are obtained from the closest station including government and personal stations which may have varying degrees of accuracy. Weather forecasts are derived from the NOAA NDFD. Like all things, this site belongs to Jesus Christ... He just trusts us to maintain it. If you have any questions or comments email webmaster@weatherforyou.com

Copyright © 2016, WeatherForYou.com LLC. All rights reserved.